Slupsk, Poland

6:35 PM CEST on May 30, 2015 (GMT +0200)
IPOMORSK9 | | Change Station
CLOSE
Current Station
Personal Weather Station
Location: Ustka, pomorskie
Elevation: 23 ft
Nearby Weather Stations

Elev 23 ft 54.59 °N, 16.86 °E | Updated 10 seconds ago

Partly Cloudy
Partly Cloudy
57.7 °F
Feels Like 57.7 °F
N
7.5
Wind Variable Wind from West
Gusts 19.7 mph

Today
High -- | Low -- °F
--% Chance of Precip.
Yesterday
High -- | Low -- °F
Precip. -- in
4:26 AM 9:13 PM
Waxing Gibbous, 91% visible
Pressure 29.83 in
Visibility 6.2 miles
Clouds Few 3600 ft
Dew Point 44 °F
Humidity 61%
Rainfall 0.18 in
Snow Depth Not available.
UV 0.0 out of 12
Pollen Not available.
Air Quality Not available.
Flu Activity Not available.
METAR EPGD 301630Z 25009KT 200V280 9999 FEW036 12/05 Q1010

More Conditions Fewer Conditions

Pressure 29.83 in
Visibility 6.2 miles
Clouds Few 3600 ft
Dew Point 44 °F
Humidity 61%
Rainfall 0.18 in
Snow Depth Not available.
UV 0.0 out of 12
Pollen Not available.
Air Quality Not available.
Flu Activity Not available.
METAR EPGD 301630Z 25009KT 200V280 9999 FEW036 12/05 Q1010

More Conditions Fewer Conditions

10-Day Weather Forecast

Almanac

Astronomy

May. 30, 2015 Rise Set
Actual Time
Civil Twilight
Nautical Twilight
Astronomical Twilight
Moon
Length of Visible Light
Length of Day
Tomorrow will be .
, % of the Moon is Illuminated

Today's Extremes

Country Highs Country Lows

Community

WunderPhotos

Upload Photos

1,825,563 photos uploaded!

WunderBlogs® & News

Nearby

Air Quality

  Air Quality AQ Index Pollutant
Not available.

Snow Depth

Station Depth Elevation

Earthquake Activity

City Distance Mag. Time & Date
Minimum magnitude displayed is 2.5.

Coastal Water Temperatures

Place Temperature

Stations

Nearby Weather Stations

Station Location Temp. Windchill Dew Point Humidity Wind Precip. Elev Updated Type